| time (UTC) | temp F | wind direction | speed knots | gust knots | rain 1hr in | rain 24hr in | rain mn in | humidity % | barometer mb |
| 20260504031022 | 45 | 188 | 2.6 | 7.8 | 0.00 | 0.14 | 0.14 | 97 | 1004.5 |
| 20260504030520 | 45 | 204 | 3.5 | 10.4 | 0.00 | 0.14 | 0.14 | 97 | 1004.5 |
| 20260504030016 | 45 | 221 | 5.2 | 9.6 | 0.00 | 0.14 | 0.14 | 98 | 1004.6 |
| 20260504025513 | 45 | 231 | 7.0 | 10.4 | 0.02 | 0.14 | 0.14 | 98 | 1004.6 |
| 20260504025009 | 45 | 191 | 3.5 | 9.6 | 0.02 | 0.14 | 0.14 | 98 | 1004.8 |
| 20260504024507 | 45 | 187 | 6.1 | 9.6 | 0.00 | 0.13 | 0.13 | 98 | 1004.7 |
| 20260504024004 | 45 | 228 | 7.0 | 9.6 | 0.00 | 0.13 | 0.13 | 99 | 1004.8 |
| 20260504023500 | 45 | 202 | 4.3 | 7.8 | 0.02 | 0.13 | 0.13 | 99 | 1005.0 |
| 20260504022955 | 45 | 193 | 4.3 | 8.7 | 0.05 | 0.13 | 0.13 | 99 | 1004.8 |
| 20260504022452 | 45 | 214 | 8.7 | 10.4 | 0.00 | 0.13 | 0.13 | 98 | 1005.1 |
| 20260504021949 | 45 | 224 | 4.3 | 7.8 | 0.00 | 0.13 | 0.13 | 98 | 1005.1 |
| 20260504021446 | 45 | 247 | 2.6 | 8.7 | 0.02 | 0.13 | 0.13 | 98 | 1005.3 |
| 20260504020943 | 45 | 244 | 7.8 | 8.7 | 0.07 | 0.13 | 0.13 | 97 | 1005.3 |
| 20260504020440 | 45 | 250 | 7.0 | 8.7 | 0.09 | 0.12 | 0.12 | 98 | 1005.3 |
| 20260504015937 | 45 | 219 | 4.3 | 10.4 | 0.07 | 0.11 | 0.11 | 98 | 1005.7 |
| 20260504015432 | 45 | 226 | 7.0 | 11.3 | 0.12 | 0.11 | 0.11 | 98 | 1005.7 |
| 20260504014928 | 45 | 242 | 10.4 | 13.9 | 0.12 | 0.10 | 0.10 | 98 | 1005.6 |
| 20260504014425 | 45 | 239 | 9.6 | 15.6 | 0.09 | 0.09 | 0.09 | 97 | 1005.7 |
| 20260504013922 | 45 | 226 | 7.8 | 20.0 | 0.09 | 0.08 | 0.08 | 96 | 1005.5 |
| 20260504013420 | 45 | 229 | 6.1 | 21.7 | 0.09 | 0.07 | 0.07 | 95 | 1005.5 |
| 20260504012916 | 46 | 245 | 9.6 | 17.4 | 0.07 | 0.06 | 0.06 | 95 | 1005.2 |
| 20260504012414 | 46 | 221 | 7.8 | 21.7 | 0.02 | 0.06 | 0.06 | 93 | 1005.4 |
| 20260504011911 | 46 | 236 | 7.8 | 17.4 | 0.02 | 0.05 | 0.05 | 93 | 1005.2 |
| 20260504011408 | 46 | 233 | 11.3 | 16.5 | 0.05 | 0.05 | 0.05 | 92 | 1005.2 |
| 20260504010904 | 46 | 228 | 10.4 | 18.2 | 0.02 | 0.05 | 0.05 | 93 | 1005.0 |
| 20260504010355 | 46 | 235 | 7.8 | 17.4 | 0.00 | 0.04 | 0.04 | 92 | 1005.0 |
| 20260504005851 | 46 | 239 | 7.8 | 16.5 | 0.00 | 0.04 | 0.04 | 90 | 1004.9 |
| 20260504005348 | 46 | 245 | 8.7 | 12.2 | 0.00 | 0.04 | 0.04 | 91 | 1005.0 |
| 20260504004845 | 46 | 239 | 10.4 | 13.0 | 0.00 | 0.04 | 0.04 | 92 | 1005.0 |
| 20260504004343 | 45 | 223 | 7.0 | 15.6 | 0.00 | 0.04 | 0.04 | 92 | 1005.0 |
| 20260504003839 | 45 | 250 | 11.3 | 13.9 | 0.00 | 0.04 | 0.04 | 94 | 1004.7 |
| 20260504003336 | 45 | 218 | 10.4 | 13.9 | 0.00 | 0.04 | 0.04 | 95 | 1005.0 |
| 20260504002833 | 45 | 197 | 6.1 | 9.6 | 0.00 | 0.04 | 0.04 | 96 | 1005.1 |
| 20260504002329 | 45 | 212 | 7.8 | 12.2 | 0.00 | 0.04 | 0.04 | 96 | 1005.0 |
| 20260504001827 | 44 | 218 | 7.8 | 13.0 | 0.00 | 0.04 | 0.04 | 96 | 1004.9 |
| 20260504001324 | 44 | 250 | 7.8 | 11.3 | 0.00 | 0.04 | 0.04 | 96 | 1005.0 |
| 20260504000821 | 44 | 243 | 4.3 | 7.8 | 0.00 | 0.04 | 0.04 | 97 | 1005.1 |
| 20260504000318 | 44 | 211 | 5.2 | 8.7 | 0.00 | 0.04 | 0.04 | 97 | 1005.1 |
| 20260503235816 | 44 | 189 | 6.1 | 13.0 | 0.00 | 0.04 | 0.04 | 96 | 1005.0 |
| 20260503235313 | 44 | 210 | 7.0 | 7.8 | 0.00 | 0.04 | 0.04 | 97 | 1004.9 |
| 20260503234810 | 44 | 208 | 6.1 | 15.6 | 0.00 | 0.04 | 0.04 | 97 | 1005.0 |
| 20260503234308 | 44 | 241 | 10.4 | 13.0 | 0.00 | 0.04 | 0.04 | 97 | 1005.2 |
| 20260503233806 | 44 | 217 | 7.0 | 20.0 | 0.02 | 0.04 | 0.04 | 96 | 1004.9 |
| 20260503233301 | 44 | 202 | 7.8 | 16.5 | 0.07 | 0.04 | 0.04 | 97 | 1005.2 |
| 20260503232758 | 44 | 175 | 6.1 | 12.2 | 0.05 | 0.04 | 0.04 | 97 | 1004.9 |
| 20260503232256 | 44 | 208 | 7.0 | 14.8 | 0.00 | 0.03 | 0.03 | 97 | 1005.0 |
| 20260503231754 | 44 | 191 | 7.8 | 9.6 | 0.00 | 0.03 | 0.03 | 96 | 1005.2 |
| 20260503231250 | 44 | 252 | 9.6 | 13.0 | 0.00 | 0.03 | 0.03 | 96 | 1005.2 |
| 20260503230746 | 44 | 195 | 6.1 | 11.3 | 0.00 | 0.03 | 0.03 | 96 | 1005.2 |
| 20260503230244 | 44 | 231 | 6.1 | 16.5 | 0.00 | 0.03 | 0.03 | 96 | 1005.4 |
| 20260503225741 | 44 | 211 | 14.8 | 23.5 | 0.02 | 0.03 | 0.03 | 95 | 1005.4 |
| 20260503225241 | 44 | 230 | 18.2 | 22.6 | 0.02 | 0.03 | 0.03 | 95 | 1005.6 |
| 20260503224738 | 44 | 224 | 6.1 | 13.0 | 0.02 | 0.03 | 0.03 | 94 | 1005.4 |
| 20260503224236 | 44 | 244 | 5.2 | 10.4 | 0.02 | 0.03 | 0.03 | 94 | 1005.4 |
| 20260503223733 | 44 | 221 | 10.4 | 11.3 | 0.02 | 0.02 | 0.02 | 93 | 1005.4 |
| 20260503223231 | 44 | 212 | 5.2 | 9.6 | 0.05 | 0.02 | 0.02 | 93 | 1005.6 |
| 20260503222727 | 44 | 228 | 6.1 | 11.3 | 0.02 | 0.02 | 0.02 | 91 | 1005.7 |
| 20260503222225 | 44 | 225 | 4.3 | 9.6 | 0.05 | 0.02 | 0.02 | 90 | 1005.7 |
| 20260503221723 | 44 | 236 | 3.5 | 7.8 | 0.05 | 0.01 | 0.01 | 89 | 1005.7 |
| 20260503221221 | 45 | 241 | 6.1 | 9.6 | 0.05 | 0.01 | 0.01 | 87 | 1005.7 |
| 20260503220717 | 45 | 245 | 6.1 | 9.6 | 0.02 | 0.00 | 0.00 | 84 | 1005.7 |
| 20260503220214 | 46 | 226 | 7.8 | 12.2 | 0.00 | 0.00 | 0.00 | 82 | 1005.7 |
| 20260503215710 | 46 | 247 | 6.1 | 9.6 | 0.00 | 0.00 | 0.00 | 80 | 1005.7 |
| 20260503215207 | 47 | 247 | 9.6 | 14.8 | 0.00 | 0.00 | 0.00 | 79 | 1005.7 |
| 20260503214705 | 47 | 202 | 5.2 | 19.1 | 0.00 | 0.00 | 0.00 | 77 | 1005.7 |
| 20260503214201 | 48 | 221 | 10.4 | 19.1 | 0.00 | 0.00 | 0.00 | 71 | 1005.7 |
| 20260503213700 | 49 | 233 | 8.7 | 22.6 | 0.00 | 0.00 | 0.00 | 67 | 1005.6 |
| 20260503213157 | 50 | 217 | 9.6 | 20.9 | 0.00 | 0.00 | 0.00 | 64 | 1005.4 |
| 20260503212654 | 51 | 223 | 15.6 | 19.1 | 0.00 | 0.00 | 0.00 | 60 | 1005.4 |
| 20260503212151 | 51 | 222 | 13.0 | 24.3 | 0.00 | 0.00 | 0.00 | 58 | 1005.0 |
| 20260503211649 | 52 | 235 | 14.8 | 19.1 | 0.00 | 0.00 | 0.00 | 56 | 1005.1 |
| 20260503211144 | 51 | 229 | 11.3 | 22.6 | 0.00 | 0.00 | 0.00 | 54 | 1005.2 |
| 20260503210636 | 52 | 230 | 12.2 | 17.4 | 0.00 | 0.00 | 0.00 | 53 | 1005.2 |
| 20260503210132 | 52 | 234 | 11.3 | 13.9 | 0.00 | 0.00 | 0.00 | 50 | 1005.0 |
| 20260503205622 | 52 | 227 | 13.0 | 21.7 | 0.00 | 0.00 | 0.00 | 48 | 1005.3 |
| 20260503205119 | 53 | 180 | 3.5 | 11.3 | 0.00 | 0.00 | 0.00 | 48 | 1005.4 |
| 20260503204616 | 51 | 212 | 7.0 | 14.8 | 0.00 | 0.00 | 0.00 | 47 | 1005.3 |
| 20260503204113 | 52 | 245 | 3.5 | 13.0 | 0.00 | 0.00 | 0.00 | 47 | 1005.3 |
| 20260503203609 | 52 | 221 | 6.1 | 17.4 | 0.00 | 0.00 | 0.00 | 46 | 1005.2 |
| 20260503203107 | 52 | 221 | 6.1 | 14.8 | 0.00 | 0.00 | 0.00 | 46 | 1005.3 |
| 20260503202605 | 52 | 190 | 9.6 | 20.9 | 0.00 | 0.00 | 0.00 | 45 | 1005.5 |
| 20260503202102 | 53 | 247 | 6.1 | 17.4 | 0.00 | 0.00 | 0.00 | 47 | 1005.3 |
| 20260503201600 | 54 | 244 | 4.3 | 9.6 | 0.00 | 0.00 | 0.00 | 45 | 1005.4 |
| 20260503201058 | 52 | 138 | 2.6 | 6.1 | 0.00 | 0.00 | 0.00 | 49 | 1005.3 |
| 20260503200554 | 52 | 306 | 2.6 | 6.1 | 0.00 | 0.00 | 0.00 | 50 | 1005.5 |
| 20260503200050 | 50 | 356 | 0.9 | 5.2 | 0.00 | 0.00 | 0.00 | 52 | 1005.8 |
| 20260503195548 | 50 | 202 | 5.2 | 13.0 | 0.00 | 0.00 | 0.00 | 52 | 1006.0 |
| 20260503195044 | 50 | 235 | 12.2 | 15.6 | 0.00 | 0.00 | 0.00 | 51 | 1006.1 |
| 20260503194542 | 50 | 252 | 7.0 | 16.5 | 0.00 | 0.00 | 0.00 | 50 | 1006.3 |
| 20260503194041 | 51 | 261 | 13.0 | 14.8 | 0.00 | 0.00 | 0.00 | 47 | 1006.2 |
| 20260503193538 | 51 | 257 | 9.6 | 14.8 | 0.00 | 0.00 | 0.00 | 48 | 1006.4 |
| 20260503193033 | 52 | 253 | 10.4 | 14.8 | 0.00 | 0.00 | 0.00 | 50 | 1006.5 |
| 20260503192530 | 51 | 251 | 16.5 | 21.7 | 0.00 | 0.00 | 0.00 | 48 | 1006.6 |
| 20260503192026 | 51 | 265 | 7.0 | 20.0 | 0.00 | 0.00 | 0.00 | 46 | 1006.8 |
| 20260503191523 | 52 | 197 | 4.3 | 14.8 | 0.00 | 0.00 | 0.00 | 44 | 1006.7 |
| 20260503191019 | 52 | 229 | 13.0 | 17.4 | 0.00 | 0.00 | 0.00 | 43 | 1006.8 |
| 20260503190516 | 53 | 262 | 7.8 | 13.0 | 0.00 | 0.00 | 0.00 | 43 | 1006.9 |
| 20260503190014 | 51 | 230 | 16.5 | 19.1 | 0.00 | 0.00 | 0.00 | 42 | 1006.8 |
| 20260503185510 | 52 | 257 | 9.6 | 18.2 | 0.00 | 0.00 | 0.00 | 42 | 1007.0 |
| 20260503185009 | 52 | 225 | 5.2 | 14.8 | 0.00 | 0.00 | 0.00 | 43 | 1006.8 |
| 20260503184506 | 51 | 212 | 8.7 | 15.6 | 0.00 | 0.00 | 0.00 | 44 | 1007.1 |
| 20260503184002 | 52 | 222 | 9.6 | 13.9 | 0.00 | 0.00 | 0.00 | 43 | 1007.2 |
| 20260503183459 | 52 | 241 | 6.1 | 15.6 | 0.00 | 0.00 | 0.00 | 45 | 1006.9 |
| 20260503182956 | 50 | 197 | 5.2 | 13.9 | 0.00 | 0.00 | 0.00 | 45 | 1006.9 |
| 20260503182455 | 51 | 216 | 7.8 | 18.2 | 0.00 | 0.00 | 0.00 | 46 | 1006.9 |
| 20260503181952 | 52 | 217 | 5.2 | 12.2 | 0.00 | 0.00 | 0.00 | 49 | 1007.3 |
| 20260503181449 | 51 | 228 | 5.2 | 9.6 | 0.00 | 0.00 | 0.00 | 49 | 1007.3 |
| 20260503180944 | 51 | 238 | 9.6 | 17.4 | 0.00 | 0.00 | 0.00 | 48 | 1007.1 |
| 20260503180443 | 50 | 262 | 7.0 | 16.5 | 0.00 | 0.00 | 0.00 | 49 | 1007.3 |
| 20260503175940 | 50 | 181 | 5.2 | 13.0 | 0.00 | 0.00 | 0.00 | 49 | 1007.4 |
| 20260503175438 | 51 | 192 | 2.6 | 7.8 | 0.00 | 0.00 | 0.00 | 49 | 1007.5 |
| 20260503174938 | 50 | 231 | 9.6 | 17.4 | 0.00 | 0.00 | 0.00 | 49 | 1007.3 |
| 20260503174437 | 50 | 239 | 13.0 | 18.2 | 0.00 | 0.00 | 0.00 | 48 | 1007.5 |
| 20260503173932 | 51 | 238 | 4.3 | 14.8 | 0.00 | 0.00 | 0.00 | 46 | 1007.3 |
| 20260503173428 | 52 | 179 | 4.3 | 12.2 | 0.00 | 0.00 | 0.00 | 47 | 1007.3 |
| 20260503172925 | 50 | 272 | 7.8 | 11.3 | 0.00 | 0.00 | 0.00 | 46 | 1007.7 |
| 20260503172423 | 51 | 254 | 13.0 | 19.1 | 0.00 | 0.00 | 0.00 | 45 | 1007.8 |
| 20260503171919 | 51 | 251 | 10.4 | 13.9 | 0.00 | 0.00 | 0.00 | 46 | 1007.5 |
| 20260503171416 | 50 | 288 | 5.2 | 13.0 | 0.00 | 0.00 | 0.00 | 45 | 1008.0 |
| 20260503170913 | 50 | 251 | 8.7 | 16.5 | 0.00 | 0.00 | 0.00 | 46 | 1007.9 |
| 20260503170409 | 49 | 232 | 8.7 | 14.8 | 0.00 | 0.00 | 0.00 | 46 | 1008.0 |
| 20260503150801 | 46 | 217 | 6.1 | 14.8 | 0.00 | 0.00 | 0.00 | 42 | 1009.0 |
| 20260503150257 | 47 | 235 | 8.7 | 10.4 | 0.00 | 0.00 | 0.00 | 42 | 1009.1 |
| 20260503140222 | 45 | 198 | 5.2 | 9.6 | 0.00 | 0.00 | 0.00 | 46 | 1009.5 |
| 20260503131151 | 43 | 274 | 3.5 | 6.1 | 0.00 | 0.00 | 0.00 | 53 | 1010.0 |
| 20260503130649 | 42 | 269 | 2.6 | 7.0 | 0.00 | 0.00 | 0.00 | 54 | 1010.0 |
| 20260503130146 | 42 | 281 | 6.1 | 7.0 | 0.00 | 0.00 | 0.00 | 54 | 1010.0 |
| 20260503120112 | 38 | 250 | 3.5 | 5.2 | 0.00 | 0.00 | 0.00 | 59 | 1010.0 |
| 20260503110539 | 34 | 195 | 2.6 | 2.6 | 0.00 | 0.00 | 0.00 | 60 | 1010.0 |
| 20260503090426 | 33 | 204 | 1.7 | 4.3 | 0.00 | 0.00 | 0.00 | 67 | 1010.3 |
| 20260503081347 | 33 | 237 | 2.6 | 3.5 | 0.00 | 0.00 | 0.00 | 65 | 1010.3 |
| 20260503080843 | 33 | 232 | 2.6 | 4.3 | 0.00 | 0.00 | 0.00 | 64 | 1010.5 |
| 20260503080341 | 33 | 228 | 1.7 | 4.3 | 0.00 | 0.00 | 0.00 | 63 | 1010.1 |
| 20260503072817 | 33 | 249 | 2.6 | 4.3 | 0.00 | 0.00 | 0.00 | 66 | 1010.3 |
| 20260503072314 | 33 | 253 | 0.9 | 3.5 | 0.00 | 0.00 | 0.00 | 66 | 1010.4 |
| 20260503071810 | 33 | 253 | 2.6 | 2.6 | 0.00 | 0.00 | 0.00 | 66 | 1010.2 |
| 20260503071308 | 33 | 257 | 1.7 | 2.6 | 0.00 | 0.00 | 0.00 | 67 | 1010.4 |
| 20260503070803 | 33 | 316 | 2.6 | 2.6 | 0.00 | 0.00 | 0.00 | 67 | 1010.3 |
| 20260503070302 | 33 | 273 | 2.6 | 3.5 | 0.00 | 0.00 | 0.00 | 67 | 1010.4 |
| 20260503060227 | 33 | 341 | 1.7 | 3.5 | 0.00 | 0.00 | 0.00 | 67 | 1010.8 |
| 20260503054713 | 33 | 289 | 3.5 | 4.3 | 0.00 | 0.00 | 0.00 | 67 | 1011.0 |
| 20260503054211 | 33 | 335 | 2.6 | 4.3 | 0.00 | 0.00 | 0.00 | 67 | 1011.1 |
| 20260503053709 | 33 | 311 | 1.7 | 3.5 | 0.00 | 0.00 | 0.00 | 67 | 1011.0 |
| 20260503053207 | 33 | 309 | 2.6 | 4.3 | 0.00 | 0.00 | 0.00 | 66 | 1011.0 |
| 20260503052703 | 33 | 337 | 2.6 | 4.3 | 0.00 | 0.00 | 0.00 | 66 | 1011.0 |
| 20260503052159 | 33 | 318 | 2.6 | 3.5 | 0.00 | 0.00 | 0.00 | 66 | 1011.1 |
| 20260503051655 | 33 | 284 | 2.6 | 3.5 | 0.00 | 0.00 | 0.00 | 67 | 1011.2 |
| 20260503051153 | 33 | 280 | 3.5 | 4.3 | 0.00 | 0.00 | 0.00 | 67 | 1011.3 |
| 20260503050649 | 33 | 272 | 2.6 | 3.5 | 0.00 | 0.00 | 0.00 | 68 | 1011.3 |
| 20260503050146 | 33 | 259 | 2.6 | 3.5 | 0.00 | 0.00 | 0.00 | 68 | 1011.3 |
| 20260503045643 | 33 | 280 | 2.6 | 3.5 | 0.00 | 0.00 | 0.00 | 68 | 1011.3 |
| 20260503045140 | 34 | 281 | 2.6 | 4.3 | 0.00 | 0.00 | 0.00 | 69 | 1011.5 |
| 20260503044637 | 34 | 263 | 3.5 | 4.3 | 0.00 | 0.00 | 0.00 | 69 | 1011.2 |
| 20260503044135 | 34 | 232 | 2.6 | 4.3 | 0.00 | 0.00 | 0.00 | 69 | 1011.4 |
| 20260503043631 | 34 | 255 | 3.5 | 4.3 | 0.00 | 0.00 | 0.00 | 69 | 1011.5 |
| 20260503043128 | 34 | 253 | 1.7 | 3.5 | 0.00 | 0.00 | 0.00 | 69 | 1011.5 |
| 20260503042624 | 34 | 283 | 1.7 | 3.5 | 0.00 | 0.00 | 0.00 | 69 | 1011.4 |
| 20260503042120 | 34 | 222 | 2.6 | 3.5 | 0.00 | 0.00 | 0.00 | 69 | 1011.5 |
| 20260503041617 | 35 | 245 | 1.7 | 4.3 | 0.00 | 0.00 | 0.00 | 68 | 1011.5 |
| 20260503041115 | 35 | 229 | 2.6 | 5.2 | 0.00 | 0.00 | 0.00 | 69 | 1011.5 |
| 20260503040612 | 35 | 262 | 2.6 | 4.3 | 0.00 | 0.00 | 0.00 | 69 | 1011.6 |
| 20260503040110 | 34 | 253 | 2.6 | 4.3 | 0.00 | 0.00 | 0.00 | 71 | 1011.3 |
| 20260503035606 | 35 | 248 | 2.6 | 4.3 | 0.00 | 0.00 | 0.00 | 70 | 1011.3 |
| 20260503035104 | 35 | 242 | 3.5 | 5.2 | 0.00 | 0.00 | 0.00 | 70 | 1011.2 |
| 20260503034601 | 35 | 224 | 2.6 | 7.0 | 0.00 | 0.00 | 0.00 | 71 | 1011.4 |
| 20260503034058 | 35 | 234 | 3.5 | 3.5 | 0.00 | 0.00 | 0.00 | 71 | 1011.6 |
| 20260503033555 | 35 | 242 | 3.5 | 4.3 | 0.00 | 0.00 | 0.00 | 70 | 1011.5 |
| 20260503033053 | 35 | 251 | 3.5 | 5.2 | 0.00 | 0.00 | 0.00 | 70 | 1011.5 |
| 20260503032551 | 35 | 232 | 1.7 | 3.5 | 0.00 | 0.00 | 0.00 | 70 | 1011.6 |
| 20260503032049 | 35 | 223 | 2.6 | 4.3 | 0.00 | 0.00 | 0.00 | 70 | 1011.3 |
| 20260503031546 | 35 | 249 | 2.6 | 4.3 | 0.00 | 0.00 | 0.00 | 70 | 1011.5 |